Location: Castelbiague
(43.0361°N, 0.9246°E)
Time: 11:05:20
(UTC+00:00)

Lacrosse 5 rocket - Pass Details

Date: 17 June 2021
Orbit: 459 x 634 km, 57.0° (Epoch: 27 July)

Event Time Altitude Azimuth Distance (km) Brightness Sun altitude
Rises 22:19:18 0° 249° (WSW) 2,531 4.8 -19.8°
Reaches altitude 10° 22:21:37 10° 259° (W) 1,635 3.9 -20.0°
Maximum altitude 22:24:57 33° 325° (NW) 807 2.8 -20.2°
Drops below altitude 10° 22:28:14 10° 31° (NNE) 1,611 4.2 -20.5°
Sets 22:30:30 0° 42° (NE) 2,487 5.0 -20.6°
